Погода Поярково

Погода Поярково : погода сейчас, прогноз погоды и архив. Всё, что Вы хотите узнать о погоде Поярково!

Поиск расширенной информации на нашем сайте:

Другие новости

Новости СМИ2

Главная страница сайта

Новости сайта

02.10.2013

Напоминаем, что на нашем новом сайте вы можете получить высокодетализированные прогнозы погоды по пунктам России, СНГ и мира (включающие важные для авиации метеовеличины, такие как направление и скорость ветра, видимость, явления погоды, количество и форма облачности, нижняя и верхняя граница облачности), а также ознакомиться с разнообразными материалами по авиационной метеорологии и подборкой полезных ссылок на эту тему.

Сайт Метеоцентр.Азия посвящён разработке технологий оптимизации авиаметеорологического обслуживания, включая проектирование и перспективное создание нескольких автоматизированных авиаметеорологических систем:
- система выпуска высокодетальных прогностических карт явлений погоды для нижнего воздушного пространства по России и ближнему зарубежью;
- система верификации прогнозов TAF (выпускаемых синоптиками официальных АМСГ РФ и ближнего зарубежья) и AUTOTAF (выпускаемых сайтом Метеоцентр.Азия) - выявление ошибок, онлайн-сопоставление с фактической погодой METAR, автоматическое внесение коррективов в прогнозы при резком отклонении фактической погоды от прогноза, подсчёт оправдываемости прогнозов по элементам и в целом;
- система обработки, анализа и отображения авиаметеорологической информации для применения провайдерами метеорологической информации.

Рекомендуем: новая баня екатеринбург

Погода Поярково - сегодня

Время (UTC), дата Ветер
(°,м/с) 
Видим.   Явления Облачность Т
(°С)
Тd
(°С)
f(%) Тe
(°С)
Pmin
(гПа)
dP
(гПа)
Po
(мм)
O2
(г/м3)
Тmin Tmax R s Состояние
почвы
15 20.03.17 340 (С) н/о    3/0 верхняя 
[Ci fib]
-0.6 -7.5 60 -2  1018.1  -0.2  753  305           
18 20.03.17 320 (СЗ) н/о    ясно 
-2.2 -9.1 59 -3  1017.8  -0.4  752  307           
21 20.03.17 310 (СЗ) н/о    3/0 
-3.9 -9.5 65 -6  1017.5  -0.4  752  308           
00 21.03.17 330 (СЗ) 20000 м    1/0 верхняя 
[Ci fib]
-1 -10 50 -4  1017  -0.3  752  305  -4.2         
03 21.03.17 320 (СЗ) 5{10}  20000 м    1/1 1000 м 
[Cu hum]
+1.3 -9.9 43 -1  1016.1  -0.8  751  302           
06 21.03.17 310 (СЗ) 6{11}  20000 м    6/6 1000 м 
[Cu med, cong]
+1.6 -10.5 40 -2  1014.7  -1.4  750  302           
09 21.03.17 320 (СЗ) 2{10}  20000 м    8/3 600 м кучево-дожд., средняя 
[Cb calv|Ac cuf]
+0.8 -10.3 43 1014.7  0.1  750  302           
12 21.03.17 320 (СЗ) н/о    10/10 1000 м 
[Sc diur, vesp]
-0.4 -8.9 53 -3  1015  0.3  750  304    +2.3       
15 21.03.17 320 (СЗ) н/о    10/8 1000 м верхняя 
[Sc diur, vesp|Ci fib]
-1.7 -9.3 56 -4  1014.6  -0.5  750  305           
18 21.03.17 290 (З) н/о    ясно 
-4.8 -10.1 66 -4  1014.4  -0.4  750  308           
21 21.03.17 290 (З) н/о    ясно 
-6.7 -10.3 75 -8  1014.7  0.2  750  311           
00 22.03.17 320 (СЗ) 20000 м    ясно 
-2.4 -10.9 52 -3  1015.3  0.9  751  306  -7.4         
03 22.03.17 330 (СЗ) 4{10}  20000 м    ясно 
+2.2 -11.2 36 1015.6  0.5  751  301           
06 22.03.17 350 (С) 3{10}  20000 м    4/4 1000 м 
[Cu hum]
+3.9 -11.5 31 +3  1016  0.5  751  300           
09 22.03.17 330 (СЗ) 20000 м    3/3 1000 м 
[Cu med, cong]
+2.3 -11.7 35 +1  1017.2  1.1  752  302           
12 22.03.17 270 (З) н/о    4/3 600 м кучево-дожд., верхняя 
[Cb calv|Ci fib]
-3.8 -8.1 72 -3  1019.2  1.7  753  309    +3.9       
15 22.03.17 тихо ()   н/о    4/0 верхняя 
[Ci fib]
-4.1 -6.9 81 -4  1019.7  0.5  754  309           
18 22.03.17 320 (СЗ) н/о    ясно 
-3.6 -7.3 75 -5  1020.3  0.6  754  309           
21 22.03.17 320 (СЗ) н/о    ясно 
-4.2 -7.4 78 -4  1021.4  755  310           
00 23.03.17 280 (З) 20000 м    4/0 средняя 
[Ac trans]
-2.6 -7.4 70 -4  1022.4  1.1  756  308  -5.5         
03 23.03.17 340 (С) 20000 м    8/8 1000 м 
[Cu med, cong]
+1.8 -11.9 35 1022.3  0.1  756  304           
06 23.03.17 340 (С) 20000 м    8/8 1000 м 
[Cu med, cong]
+2.4 -12.3 33 1021.5  -0.8  755  303           
09 23.03.17 360 (С) 2{10}  20000 м    1/1 1000 м 
+2.3 -12.1 34 +2  1021.5  0.1  755  303           
12 23.03.17 280 (З) н/о    1/0 верхняя 
[Ci fib]
-4.1 -7.9 75 -4  1022.7  0.8  756  310    +3.4       
15 23.03.17 300 (СЗ) н/о    ясно 
-3.7 -8.2 71 -5  1022.8  0.1  756  310           
Время (UTC), дата Ветер
(°,м/с) 
Видим.   Явления Облачность Т
(°С)
Тd
(°С)
f(%) Тe
(°С)
Pmin
(гПа)
dP
(гПа)
Po
(мм)
O2
(г/м3)
Тmin Tmax R s Состояние
почвы

Для получения пояснительной информации подведите курсор к названию столбца.

ПОГОДА Поярково - архив

Всё, что Вы хотите узнать о погоде Поярково - удобно и подробно!

Выберите нужную дату (начиная с 1 января 2015* года) и нажмите кнопку "Найти".
Будут отображены архивные сводки погоды по пункту Поярково, начиная с указанной даты.


Отображать данные в формате CSV (для использования в таблицах Excel)


Внимание! Наш архив погоды предназначен исключительно для личного некоммерческого использования в познавательных целях. Если Вам необходимы официальные справки о состоянии погоды (для производственных, юридических, коммерческих и т.п. целей), обращайтесь в органы Росгидромета.

*Примечание: данная дата относится к архиву по метеостанциям СССР (Россия, СНГ, Балтия).
Архив по метеостанциям Зарубежной Европы и Азии (кроме Китая) хранится 10 дней, по другим регионам земного шара (Китай, Африка, Америка, Австралия, Океания) - 1 день.

Поярково - район местоположения метеостанции


Название, широта, долгота, высота метеостанции:
Поярково 49.6°ш. 128.6°д. 115 м над ур. моря [Российская Федерация]

Дополнительная информация

В oтличие oт бoльшинства пoгoдных сайтoв мы публикуем пoдрoбную метеoинфoрмацию в детальнoм прoфессиoнальнoм фoрмате.

Характеристики температуры и влажнoсти вoздуха измеряются на высoте 2 м в тени вдали oт зданий и деревьев.
Скoрoсть ветра измеряется на высoте 10 м (на урoвне рoста челoвека скoрoсть ветра ниже в 1.5-2 раза). Если метеoстанция нахoдится в гoрoде или в лесу, тo скoрoсть ветра занижена на 2-4 м/с пo сравнению с oткрытым местoм. Скoрoсть ветра над акватoриями крупных рек и oзёр, а также на вершинах хoлмoв на 2-5 м/с выше, чем в oбычных услoвиях.
Атмoсфернoе давление в разных тoчках местнoсти мoжет значительнo oтличаться oт давления на метеoстанции, в зависимoсти oт услoвий рельефа (при пoдъёме на 10 м давление пoнижается примернo на 1 мм рт.ст.).